| time (UTC) | temp C | wind direction | speed KPH | gust KPH | rain 1hr cm | rain 24hr cm | rain mn cm | humidity % | barometer mb |
| 20260504034518 | -17 | 0.0 | 0.0 | 0.00 | 2.01 | 0.00 | |||
| 20260504033607 | -17 | 0.0 | 0.0 | 0.00 | 2.01 | 0.00 | |||
| 20260504032517 | -17 | 0.0 | 0.0 | 0.00 | 2.01 | 0.00 | |||
| 20260504031517 | -17 | 0.0 | 0.0 | 0.00 | 2.01 | 0.00 | |||
| 20260504030518 | -17 | 0.0 | 0.0 | 0.00 | 2.01 | 0.00 | |||
| 20260504025517 | -17 | 0.0 | 0.0 | 0.00 | 2.01 | 0.00 | |||
| 20260504024533 | -17 | 0.0 | 0.0 | 0.00 | 2.01 | 0.00 | |||
| 20260504024017 | -17 | 0.0 | 0.0 | 0.00 | 2.01 | 0.00 | |||
| 20260504023017 | -17 | 0.0 | 0.0 | 0.00 | 2.01 | 0.00 | |||
| 20260504022018 | -17 | 0.0 | 0.0 | 0.00 | 2.01 | 0.00 | |||
| 20260504021057 | -17 | 0.0 | 0.0 | 0.00 | 2.01 | 0.00 | |||
| 20260504020538 | -17 | 0.0 | 0.0 | 0.00 | 2.01 | 0.00 | |||
| 20260504015517 | -17 | 0.0 | 0.0 | 0.00 | 2.01 | 0.00 | |||
| 20260504015017 | -17 | 0.0 | 0.0 | 0.00 | 2.01 | 0.00 | |||
| 20260504014017 | -17 | 0.0 | 0.0 | 0.00 | 2.01 | 0.00 | |||
| 20260504013017 | -17 | 0.0 | 0.0 | 0.00 | 2.01 | 0.00 | |||
| 20260504012029 | -17 | 0.0 | 0.0 | 0.00 | 2.01 | 0.00 | |||
| 20260504011537 | -17 | 0.0 | 0.0 | 0.00 | 2.01 | 0.00 | |||
| 20260504010517 | -17 | 0.0 | 0.0 | 0.00 | 2.01 | 0.00 | |||
| 20260504005517 | -17 | 0.0 | 0.0 | 0.00 | 2.01 | 0.00 | |||
| 20260504004611 | -17 | 0.0 | 0.0 | 0.00 | 2.01 | 0.00 | |||
| 20260504004017 | -17 | 0.0 | 0.0 | 0.00 | 2.01 | 0.00 | |||
| 20260504003017 | -17 | 0.0 | 0.0 | 0.00 | 2.01 | 0.00 | |||
| 20260504002517 | -17 | 0.0 | 0.0 | 0.00 | 2.01 | 0.00 | |||
| 20260504001537 | 14 | 99 | 4.8 | 0.0 | 0.00 | 2.01 | 0.00 | 70 | |
| 20260504000522 | 14 | 90 | 4.8 | 4.8 | 0.00 | 2.01 | 0.00 | 70 | 1014.2 |
| 20260504000037 | 14 | 90 | 1.6 | 8.0 | 0.00 | 2.01 | 2.01 | 70 | 1014.2 |
| 20260503235038 | 14 | 90 | 4.8 | 8.0 | 0.00 | 2.01 | 2.01 | 71 | 1014.1 |
| 20260503234017 | 14 | 90 | 3.2 | 9.7 | 0.00 | 2.01 | 2.01 | 71 | 1014.2 |
| 20260503233037 | 14 | 90 | 1.6 | 6.4 | 0.00 | 2.01 | 2.01 | 72 | 1014.2 |
| 20260503232017 | 14 | 90 | 3.2 | 6.4 | 0.00 | 2.01 | 2.01 | 72 | 1014.2 |
| 20260503231017 | 14 | 113 | 1.6 | 4.8 | 0.00 | 2.01 | 2.01 | 73 | 1014.2 |
| 20260503230017 | 14 | 113 | 1.6 | 6.4 | 0.00 | 2.01 | 2.01 | 73 | 1014.1 |
| 20260503225037 | 14 | 90 | 3.2 | 6.4 | 0.00 | 2.01 | 2.01 | 73 | 1014.1 |
| 20260503224016 | 14 | 0.0 | 1.6 | 0.00 | 2.03 | 2.01 | 73 | 1014.4 | |
| 20260503223017 | 15 | 0.0 | 0.0 | 0.00 | 2.03 | 2.01 | 73 | 1014.2 | |
| 20260503222037 | 15 | 90 | 1.6 | 4.8 | 0.00 | 2.13 | 2.01 | 73 | 1014.2 |
| 20260503221017 | 15 | 0.0 | 3.2 | 0.00 | 2.21 | 2.01 | 73 | 1014.2 | |
| 20260503220118 | 15 | 90 | 3.2 | 8.0 | 0.00 | 2.21 | 2.01 | 73 | 1014.0 |
| 20260503215017 | 15 | 90 | 1.6 | 6.4 | 0.00 | 2.21 | 2.01 | 73 | 1014.1 |
| 20260503214017 | 15 | 113 | 1.6 | 4.8 | 0.00 | 2.21 | 2.01 | 73 | 1014.0 |
| 20260503213016 | 15 | 90 | 4.8 | 11.3 | 0.03 | 2.21 | 2.01 | 73 | 1013.9 |
| 20260503212016 | 15 | 113 | 3.2 | 9.7 | 0.08 | 2.21 | 2.01 | 73 | 1013.9 |
| 20260503211017 | 15 | 90 | 6.4 | 19.3 | 0.13 | 2.21 | 2.01 | 73 | 1013.9 |
| 20260503210017 | 15 | 90 | 4.8 | 14.5 | 0.13 | 2.21 | 2.01 | 73 | 1014.1 |
| 20260503205017 | 15 | 90 | 6.4 | 16.1 | 0.15 | 2.21 | 2.01 | 72 | 1014.1 |
| 20260503204017 | 15 | 90 | 6.4 | 14.5 | 0.15 | 2.21 | 2.01 | 72 | 1014.1 |
| 20260503203037 | 15 | 90 | 12.9 | 19.3 | 0.13 | 2.21 | 1.98 | 71 | 1013.9 |
| 20260503202017 | 15 | 113 | 3.2 | 11.3 | 0.05 | 2.13 | 1.93 | 70 | 1014.5 |
| 20260503201017 | 15 | 113 | 4.8 | 12.9 | 0.03 | 2.11 | 1.88 | 70 | 1014.6 |
| 20260503200016 | 15 | 90 | 8.0 | 14.5 | 0.03 | 2.11 | 1.88 | 69 | 1014.3 |
| 20260503195016 | 15 | 68 | 8.0 | 11.3 | 0.00 | 2.08 | 1.85 | 69 | 1014.2 |
| 20260503194037 | 15 | 45 | 4.8 | 8.0 | 0.00 | 2.11 | 1.85 | 69 | 1014.1 |
| 20260503193017 | 15 | 45 | 4.8 | 9.7 | 0.00 | 2.16 | 1.85 | 68 | 1013.9 |
| 20260503192037 | 15 | 338 | 1.6 | 6.4 | 0.00 | 2.21 | 1.85 | 68 | 1013.7 |
| 20260503191016 | 15 | 90 | 3.2 | 11.3 | 0.00 | 2.31 | 1.85 | 68 | 1013.4 |
| 20260503190016 | 15 | 90 | 6.4 | 12.9 | 0.00 | 2.36 | 1.85 | 68 | 1013.1 |
| 20260503185016 | 15 | 113 | 6.4 | 16.1 | 0.00 | 2.59 | 1.85 | 67 | 1012.9 |
| 20260503184017 | 15 | 90 | 8.0 | 19.3 | 0.00 | 3.00 | 1.85 | 67 | 1012.9 |
| 20260503183016 | 15 | 113 | 9.7 | 24.1 | 0.00 | 3.71 | 1.85 | 66 | 1012.7 |
| 20260503182017 | 16 | 113 | 8.0 | 19.3 | 0.00 | 3.89 | 1.85 | 66 | 1012.8 |
| 20260503181016 | 16 | 113 | 6.4 | 20.9 | 0.00 | 3.89 | 1.85 | 66 | 1012.6 |
| 20260503180017 | 16 | 135 | 4.8 | 16.1 | 0.00 | 3.89 | 1.85 | 66 | 1012.8 |
| 20260503175016 | 16 | 113 | 4.8 | 16.1 | 0.00 | 3.89 | 1.85 | 66 | 1012.7 |
| 20260503174036 | 16 | 113 | 3.2 | 12.9 | 0.00 | 3.89 | 1.85 | 66 | 1012.6 |
| 20260503173017 | 16 | 113 | 8.0 | 20.9 | 0.00 | 3.89 | 1.85 | 66 | 1012.4 |
| 20260503172017 | 16 | 113 | 9.7 | 20.9 | 0.00 | 3.89 | 1.85 | 65 | 1012.3 |
| 20260503171016 | 16 | 113 | 8.0 | 20.9 | 0.00 | 3.89 | 1.85 | 65 | 1012.7 |
| 20260503131016 | 15 | 203 | 6.4 | 17.7 | 1.27 | 3.56 | 1.42 | 70 | 1014.4 |
| 20260503081017 | 15 | 113 | 4.8 | 17.7 | 0.00 | 2.13 | 0.05 | 74 | 1016.2 |
| 20260503072018 | 14 | 0.0 | 6.4 | 0.00 | 2.13 | 0.05 | 76 | 1016.1 | |
| 20260503071017 | 14 | 113 | 1.6 | 8.0 | 0.00 | 2.13 | 0.05 | 76 | 1016.0 |
| 20260503055037 | 14 | 90 | 8.0 | 14.5 | 0.05 | 2.13 | 0.05 | 75 | 1015.9 |
| 20260503054018 | 14 | 113 | 4.8 | 9.7 | 0.03 | 2.11 | 0.03 | 75 | 1016.0 |
| 20260503053018 | 14 | 0.0 | 1.6 | 0.03 | 2.11 | 0.03 | 75 | 1016.2 | |
| 20260503052018 | 14 | 113 | 1.6 | 4.8 | 0.00 | 2.11 | 0.00 | 74 | 1016.1 |
| 20260503051018 | 14 | 90 | 1.6 | 6.4 | 0.00 | 2.11 | 0.00 | 74 | 1016.1 |
| 20260503050017 | 14 | 90 | 1.6 | 6.4 | 0.00 | 2.11 | 0.00 | 74 | 1016.0 |
| 20260503045017 | 14 | 90 | 1.6 | 6.4 | 0.00 | 2.11 | 0.00 | 75 | 1015.9 |
| 20260503044118 | 14 | 113 | 3.2 | 8.0 | 0.00 | 2.11 | 0.00 | 75 | 1016.0 |
| 20260503043017 | 14 | 113 | 3.2 | 9.7 | 0.00 | 2.11 | 0.00 | 76 | 1016.1 |
| 20260503042018 | 14 | 90 | 3.2 | 9.7 | 0.00 | 2.11 | 0.00 | 77 | 1016.0 |
| 20260503041037 | 14 | 90 | 4.8 | 12.9 | 0.00 | 2.11 | 0.00 | 76 | 1016.1 |
| 20260503040018 | 14 | 90 | 4.8 | 12.9 | 0.00 | 2.11 | 0.00 | 77 | 1016.2 |
| 20260503035017 | 14 | 90 | 6.4 | 14.5 | 0.00 | 2.11 | 0.00 | 77 | 1016.2 |